Regional Weather Roundup
Issued by NWS

Home | Current Version | Previous Version | Graphics & Text | Print | Product List | Glossary On
Versions: 1 2 3 4 5 6 7 8 9 10 11 12 13 14 15 16 17 18 19 20 21 22 23 24 25 26 27 28 29 30 31 32 33 34 35 36 37 38 39 40 41 42 43 44 45 46 47 48 49 50
038
ASUS43 KLSX 200107
RWRMO

WEATHER SUMMARY FOR MISSOURI
NATIONAL WEATHER SERVICE SPRINGFIELD MO
700 PM CST THU JAN 19 2017

NOTE: "FAIR" INDICATES FEW OR NO CLOUDS BELOW 12,000 FEET WITH NO
       SIGNIFICANT WEATHER AND/OR OBSTRUCTIONS TO VISIBILITY.
       CURRENT SKY AND/OR WEATHER CONDITIONS ARE NOT AVAILABLE FOR
       CHILLICOTHE AND FARMINGTON.

MOZ001>031-035>038-043-044-053-054-200200-
...NORTHERN AND WESTERN MISSOURI...

CITY           SKY/WX    TMP DP  RH WIND       PRES   REMARKS
KANSAS CTY INT CLOUDY    47  43  86 CALM      29.63F
KANSAS C DTWN  CLOUDY    49  46  90 E5        29.64S
LEE`S SUMMIT   CLOUDY    47  47 100 E5        29.64F
ST JOSEPH      CLOUDY    46  45  96 S6        29.65S
CHILLICOTHE      N/A     45  45 100 CALM      29.67F
KIRKSVILLE     FOG       43  42  97 E5        29.68S VSB 1/4

$$
MOZ066>068-077>081-088>096-101>105-200200-
...SOUTHWEST MISSOURI...

CITY           SKY/WX    TMP DP  RH WIND       PRES   REMARKS
SPRINGFIELD    CLOUDY    51  49  92 CALM      29.62F
JOPLIN         CLEAR     45  45 100 CALM      29.61F
BRANSON        PTCLDY    46  46 100 SE8       29.65S

$$
MOZ032>034-039>042-045>050-055>058-069>072-200200-
...CENTRAL MISSOURI...

CITY           SKY/WX    TMP DP  RH WIND       PRES   REMARKS
COLUMBIA       FOG       48  47  96 E5        29.66F VSB<1/4
JEFFERSON CITY CLOUDY    48  48 100 E5        29.67S FOG
ROLLA          FOG       48  48 100 E7        29.64F VSB 1/2
SEDALIA        CLOUDY    49  48  97 CALM      29.67S FOG
WARRENSBURG    CLOUDY    46  45  93 NE3       29.65S FOG
OSAGE BEACH    LGT RAIN  48  48 100 NE5       29.66S FOG

$$
MOZ051-052-059>065-200200-
...EAST CENTRAL MISSOURI...

CITY           SKY/WX    TMP DP  RH WIND       PRES   REMARKS
ST LOUIS INTL  FOG       48  46  93 E3        29.70F VSB 1/2
SPIRIT OF STL  FOG       46  46 100 NE5       29.69F VSB 1/2
ST CHARLES     FOG       45  45 100 NE5       29.70F VSB 1/4

$$
MOZ072>076-082>087-097>100-106>115-200200-
...SOUTH CENTRAL AND SOUTHEAST MISSOURI...

CITY           SKY/WX    TMP DP  RH WIND       PRES   REMARKS
CAPE GIRARDEAU FOG       54  53  97 SE5       29.67F VSB 3/4
FARMINGTON     TSTM      48  48 100 S9        29.71R VSB 1/4
POPLAR BLUFF   LGT RAIN  49  49 100 CALM      29.67F VSB 1
WEST PLAINS    FOG       49  49 100 SE6       29.68R VSB 1/4

$$



USA.gov is the U.S. government's official web portal to all federal, state and local government web resources and services.